Погода в Барановке

Россия / Кемеровская область (Кузбасс)     55°38′17″N   85°57′07″E
темп.,
°C
ветер,
м/с
пор.,
м/с
влажн.,
%
обл.,
%
осадки,
мм/ч
давл.,
гПа
погр.,
м
18 мая, вт
вт1801:00+9ю228697 0.0 101245
04:00+10ю3992100 0.0 1008178
07:00+12ююв3696100 2.7 1004229
10:00+15з4989100 1.4 1001994
13:00+13с368660 1.9 1004480
16:00+18ссв445862 0.1 10051293
19:00+14ссв447676 0.1 1006649
22:00+10св3690100 0.0 1007360
19 мая, ср
ср1901:00+9св3690100 0.0 1007388
04:00+8ссв51092100 1.2 1005573
07:00+7св41190100 3.9 1006703
10:00+10св5104322 0.0 10071024
13:00+13ссв673358 0.0 10082028
16:00+12с6735100 0.0 10092346
19:00+10с573895 0.0 10102105
22:00+5с3104891 0.0 1012441
20 мая, чт
чт2001:00+2с310605 0.0 1013262
04:000с27701 0.0 1013141
07:00+2с365851 0.0 1013295
10:00+5ссв454795 0.1 10141685
13:00+6с4539100 0.6 10142167
16:00+6с5631100 0.1 10152302
19:00+6с464299 0.1 10161888
22:00+3ссз127184 0.1 101836
21 мая, пт
пт2101:00+1ссз227998 0.1 101951
04:00+1сз2495100 0.1 1020162
07:00+3ссз3106213 0.1 1022347
10:00+10с46333 0.0 10221305
13:00+13ссз34265 0.0 10222520
16:00+14зсз452477 0.0 10222767
19:00+12з453043 0.0 10222170
22:00+6зюз2756100 0.0 1024165
22 мая, сб
сб2201:00+6юз2853100 0.0 1024221
04:00+6ююз2955100 0.0 1023286
07:00+7юз3850100 0.0 1023384
10:00+11юз6941100 0.0 10221752
13:00+10юз6955100 0.0 10211465
16:00+6ююз51189100 0.4 1022932
19:00+6ююз3992100 0.8 1022794
22:00+6ююз2693100 0.1 1022404